{"data":{"norad_id":66827,"epoch":"2026-09-20T13:16:55.107840Z","epoch_age_seconds":79437,"freshness":"FRESH","line1":"1 66827U 25280G   26263.55341560  .00003660  00000+0  31438-3 0  9990","line2":"2 66827  70.0007 203.1739 0002603 264.3642  95.7220 14.98328627 45260","mean_motion":14.98328627,"eccentricity":0.0002603,"inclination_deg":70.0007,"raan_deg":203.1739,"arg_perigee_deg":264.3642,"mean_anomaly_deg":95.722,"bstar":0.00031438,"rev_number":4526,"period_min":96.107087193763,"perigee_km":570.25100052218,"apogee_km":573.86927315162,"semimajor_km":6950.1971368369,"source":"CELESTRAK","updated_at":"2026-09-21T09:00:36.020751Z"}}